[[{"header":{"parameterUnit":"m.s-1","parameterCategory":1,"la1":30.2991,"la2":30.254,"lo1":-89.0895,"lo2":-89.0444,"dy":0.0017,"dx":0.0017,"nx":28,"ny":28,"refTime":"2023-09-27T09:00:00:Z","depth":0,"parameterNumber":2,"parameterNumberName":"U-component_of_WINDS"},"data":[0,0,0,0,0,0,0,0,0,0,0,0,0,0,0,0,0,0,0,0,0,0,0,0,0,0,0,0,0,0,0,0,0,0,0,0,0,0,0,0,0,0,0,0,0,0,0,0,0,0,0,0,0,0,0,0,0,0,-4.4811,-4.481,0,-4.4695,-4.4694,-4.4693,-4.4528,-4.4525,-4.4522,-4.452,-4.4398,-4.4397,-4.4397,0,0,0,0,0,0,0,0,0,0,0,0,0,-4.4891,-4.489,-4.4812,-4.481,-4.4809,-4.4695,-4.4694,-4.4692,-4.4528,-4.4525,-4.4521,-4.4518,-4.4398,-4.4397,-4.4396,0,0,0,0,0,0,0,0,0,0,0,0,0,-4.4824,-4.489,-4.4812,-4.4713,-4.4703,-4.4696,-4.4694,-4.4692,-4.4529,-4.4525,-4.4521,-4.4517,-4.4398,-4.4397,-4.4396,-4.4475,0,0,-4.4394,-4.4393,0,0,0,0,0,0,0,0,-4.4828,-4.4821,-4.4729,-4.472,-4.4709,-4.4622,-4.4677,-4.4619,-4.453,-4.4595,-4.4519,-4.4515,-4.4476,-4.4468,-4.4455,-4.4469,-4.4464,-4.4393,-4.4393,-4.4392,-4.4392,0,0,0,0,0,0,0,-4.4833,-4.4825,-4.4765,-4.4728,-4.4716,-4.4675,-4.466,-4.4665,-4.456,-4.4589,-4.4577,-4.4566,-4.4469,-4.4457,-4.4451,-4.4462,-4.4393,-4.4393,-4.4392,-4.4392,-4.4535,-4.4539,0,0,0,0,0,0,-4.4852,-4.483,-4.4769,-4.4762,-4.4759,-4.4677,-4.4661,-4.4654,-4.456,-4.4541,-4.4569,-4.4558,-4.446,-4.4453,-4.4446,-4.4531,-4.4392,-4.4392,-4.4391,-4.4531,-4.4536,-4.4541,0,0,0,0,0,0,-4.4855,-4.4848,-4.4774,-4.4793,-4.478,-4.468,-4.4673,-4.4654,-4.4641,-4.4545,-4.4525,-4.4576,-4.4457,-4.4448,-4.4469,-4.4525,-4.4391,-4.439,-4.4526,-4.4532,-4.4538,-4.4703,0,0,0,0,0,0,-4.4858,-4.485,-4.4879,-4.4795,-4.478,-4.4799,-4.4677,-4.4655,-4.464,-4.4625,-4.4546,-4.4528,-4.4453,-4.4472,-4.4469,-4.4521,-4.439,-4.452,-4.4529,-4.4536,-4.4692,-4.4714,-4.4733,0,0,0,0,0,-4.4861,-4.4929,-4.4881,-4.4875,-4.4814,-4.4803,-4.4794,-4.4706,-4.4645,-4.4673,-4.4612,-4.4531,-4.452,-4.4475,-4.447,-4.4523,-4.4516,-4.4526,-4.4536,-4.4682,-4.471,-4.4732,0,0,0,0,0,0,-4.5021,-4.4916,-4.4862,-4.4905,-4.4865,-4.4775,-4.4807,-4.4738,-4.4713,-4.4699,-4.4591,-4.4574,-4.4609,-4.4569,-4.4521,-4.4595,-4.4506,-4.4515,-4.4619,-4.4644,-4.4664,-4.4672,-4.4389,0,0,0,0,0,-4.5062,-4.5062,-4.4971,-4.5017,-4.5,-4.4908,-4.49,-4.4836,-4.4789,-4.4771,-4.4711,-4.4668,-4.4654,-4.4647,-4.463,-4.4687,-4.4666,-4.4721,-4.4742,-4.4759,-4.4767,-4.4793,-4.4816,-4.4573,-4.4573,-4.4573,0,0,-4.5145,-4.5088,-4.5094,-4.5048,-4.5009,-4.5011,-4.4894,-4.4902,-4.4902,-4.4771,-4.4787,-4.4743,-4.4688,-4.4728,-4.4742,-4.4695,-4.4831,-4.4771,-4.4786,-4.4784,-4.4806,-4.4829,-4.485,-4.458,-4.4579,-4.4577,0,0,-4.5297,-4.5255,-4.5289,-4.5253,-4.5196,-4.5135,-4.5144,-4.5066,-4.5031,-4.5047,-4.4949,-4.4948,-4.4928,-4.4892,-4.4872,-4.5015,-4.4939,-4.5013,-4.5119,-4.5146,-4.5165,-4.5181,-4.523,-4.525,-4.5022,-4.5022,-4.5022,0,-4.5407,-4.5407,-4.5315,-4.5329,-4.5311,-4.5196,-4.5229,-4.5199,-4.5139,-4.5129,-4.5078,-4.5051,-4.5006,-4.5035,-4.507,-4.5058,-4.5064,-4.5019,-4.517,-4.5185,-4.5199,-4.5245,-4.5264,-4.5031,-4.503,-4.5029,-4.5028,0,-4.5544,-4.5546,-4.5581,-4.5527,-4.5514,-4.5538,-4.5449,-4.5447,-4.5386,-4.5331,-4.5348,-4.5291,-4.526,-4.5263,-4.5202,-4.5284,-4.5256,-4.519,-4.5097,-4.5233,-4.5274,-4.5291,-4.5044,-4.5041,-4.5038,-4.5036,0,0,-4.5789,-4.5687,-4.5701,-4.5675,-4.5606,-4.5605,-4.5625,-4.5596,-4.5595,-4.556,-4.5572,-4.5559,-4.5497,-4.5474,-4.541,-4.5434,-4.555,-4.5363,-4.5361,-4.5398,-4.5634,-4.5683,-4.5705,-4.5501,-4.5504,-4.5506,-4.5638,0,-4.5925,-4.5952,-4.5871,-4.5918,-4.5918,-4.5811,-4.5828,-4.5787,-4.5737,-4.573,-4.5674,-4.5666,-4.5586,-4.5571,-4.5591,-4.5532,-4.5595,-4.5521,-4.5509,-4.551,-4.5523,-4.5726,-4.5777,-4.5904,-4.5654,-4.5657,-4.5659,0,-4.6086,-4.606,-4.6108,-4.6037,-4.6034,-4.605,-4.6017,-4.6013,-4.5965,-4.5927,-4.5903,-4.5829,-4.5843,-4.5758,-4.5775,-4.5727,-4.5718,-4.5689,-4.5691,-4.5684,-4.559,-4.5722,-4.5943,-4.5961,-4.5683,-4.5681,-4.568,0,-4.6257,-4.6235,-4.6259,-4.6242,-4.616,-4.6174,-4.6141,-4.6089,-4.6077,-4.6049,-4.604,-4.6015,-4.6,-4.5982,-4.5902,-4.5848,-4.5928,-4.5837,-4.5895,-4.5897,-4.5913,-4.5913,-4.6133,-4.5914,-4.5914,-4.5913,-4.5913,0,-4.6416,-4.6448,-4.6335,-4.6351,-4.6384,-4.6293,-4.6329,-4.6284,-4.624,-4.6245,-4.6151,-4.6157,-4.6054,-4.6049,-4.5988,-4.601,-4.6005,-4.5973,-4.5956,-4.598,-4.5984,-4.5969,-4.5957,-4.5918,-4.5917,-4.5916,-4.5915,0,-4.661,-4.6536,-4.6556,-4.6479,-4.6461,-4.6489,-4.6422,-4.6433,-4.6379,-4.6386,-4.6382,-4.6296,-4.6286,-4.6206,-4.6178,-4.6136,-4.6181,-4.6148,-4.6197,-4.6185,-4.6247,-4.6241,-4.6463,-4.6487,-4.6256,-4.6259,-4.6261,0,-4.6714,-4.6737,-4.6663,-4.666,-4.6631,-4.6628,-4.6616,-4.6528,-4.6519,-4.6468,-4.6485,-4.6468,-4.6448,-4.6436,-4.6371,-4.6349,-4.6312,-4.6392,-4.6308,-4.6332,-4.631,-4.6309,-4.631,-4.6409,-4.6412,-4.6414,-4.6416,0,-4.6906,-4.6869,-4.6856,-4.6831,-4.682,-4.6795,-4.6765,-4.6768,-4.6671,-4.6666,-4.6655,-4.6641,-4.6613,-4.6596,-4.6563,-4.6527,-4.6456,-4.6444,-4.6456,-4.6478,-4.6505,-4.6489,-4.6243,-4.6438,-4.6436,-4.6434,-4.6433,-4.6432,-4.7056,-4.7071,-4.7022,-4.7011,-4.698,-4.6955,-4.6961,-4.6909,-4.6898,-4.6869,-4.6819,-4.6815,-4.6768,-4.6716,-4.6688,-4.6683,-4.6641,-4.6659,-4.6662,-4.6667,-4.6679,-4.651,-4.6677,-4.6676,-4.6676,-4.6675,-4.6675,0,-4.7241,-4.7205,-4.7196,-4.7157,-4.7149,-4.7086,-4.705,-4.7046,-4.7045,-4.7008,-4.6992,-4.6979,-4.6963,-4.6899,-4.6876,-4.6885,-4.6851,-4.6881,-4.6878,-4.6871,-4.6719,-4.671,-4.6909,-4.6909,-4.6909,-4.6909,-4.6909,-4.6909,-4.7336,-4.7358,-4.7316,-4.7323,-4.7286,-4.7282,-4.7267,-4.7244,-4.7213,-4.7204,-4.7191,-4.715,-4.7102,-4.7075,-4.7058,-4.7039,-4.7034,-4.7075,-4.7045,-4.6904,-4.6881,-4.686,-4.685,-4.7075,-4.7075,-4.7196,-4.7197,-4.7198]},{"header":{"parameterUnit":"m.s-1","parameterCategory":1,"la1":30.2991,"la2":30.254,"lo1":-89.0895,"lo2":-89.0444,"dy":0.0017,"dx":0.0017,"nx":28,"ny":28,"refTime":"2023-09-27T09:00:00:Z","depth":0,"parameterNumber":3,"parameterNumberName":"V-component_of_WINDS"},"data":[0,0,0,0,0,0,0,0,0,0,0,0,0,0,0,0,0,0,0,0,0,0,0,0,0,0,0,0,0,0,0,0,0,0,0,0,0,0,0,0,0,0,0,0,0,0,0,0,0,0,0,0,0,0,0,0,0,0,1.5819,1.5815,0,1.5428,1.5423,1.5419,1.52,1.5199,1.5198,1.5198,1.4777,1.4766,1.4756,0,0,0,0,0,0,0,0,0,0,0,0,0,1.6357,1.6349,1.5819,1.5814,1.581,1.5429,1.5423,1.5418,1.52,1.5199,1.5198,1.5197,1.478,1.4767,1.4755,0,0,0,0,0,0,0,0,0,0,0,0,0,1.6061,1.6346,1.582,1.5655,1.5637,1.543,1.5423,1.5416,1.52,1.5199,1.5198,1.5197,1.4784,1.4769,1.4753,1.4673,0,0,1.4704,1.4697,0,0,0,0,0,0,0,0,1.6078,1.6041,1.5684,1.5666,1.5645,1.5362,1.5458,1.5166,1.52,1.5365,1.5198,1.5197,1.4971,1.4939,1.4867,1.4654,1.4636,1.4703,1.4693,1.4686,1.4682,0,0,0,0,0,0,0,1.6098,1.6056,1.5664,1.5679,1.5655,1.5594,1.5551,1.5402,1.5177,1.5351,1.5334,1.5292,1.496,1.4883,1.4856,1.4629,1.4703,1.4689,1.4679,1.4673,1.4326,1.4326,0,0,0,0,0,0,1.6148,1.6075,1.5676,1.5652,1.5864,1.5586,1.5537,1.5453,1.5178,1.5136,1.5293,1.5283,1.4911,1.4875,1.484,1.4726,1.4686,1.4672,1.4662,1.4326,1.4326,1.4327,0,0,0,0,0,0,1.6161,1.6115,1.5692,1.5859,1.5801,1.5577,1.5485,1.5446,1.537,1.5135,1.5092,1.5258,1.4909,1.4863,1.4717,1.4709,1.4664,1.465,1.4325,1.4326,1.4326,1.45,0,0,0,0,0,0,1.6177,1.6121,1.6093,1.586,1.5793,1.5582,1.5485,1.5439,1.5345,1.5329,1.509,1.505,1.4905,1.4742,1.4701,1.4686,1.4637,1.4325,1.4326,1.4326,1.4494,1.4507,1.4517,0,0,0,0,0,1.6197,1.6154,1.6093,1.6046,1.5754,1.5582,1.5543,1.5382,1.5346,1.5312,1.5161,1.5057,1.4718,1.4729,1.4681,1.4661,1.4325,1.4325,1.4326,1.4489,1.4504,1.4517,0,0,0,0,0,0,1.6384,1.612,1.605,1.5931,1.5782,1.5546,1.5499,1.5404,1.5256,1.5246,1.5047,1.4995,1.4867,1.4749,1.4767,1.4567,1.4509,1.4501,1.4649,1.4662,1.4673,1.4702,1.4624,0,0,0,0,0,1.6413,1.6302,1.6074,1.5991,1.5921,1.5724,1.5643,1.5533,1.5367,1.53,1.5138,1.4976,1.4831,1.474,1.4595,1.4477,1.4419,1.4439,1.4451,1.4462,1.4455,1.4379,1.4384,1.4329,1.4329,1.4329,0,0,1.6468,1.631,1.6251,1.6025,1.5896,1.5779,1.5672,1.5552,1.5461,1.5279,1.5134,1.501,1.4814,1.4682,1.4615,1.4579,1.4458,1.4462,1.4473,1.4459,1.4381,1.4386,1.4391,1.433,1.433,1.433,0,0,1.6509,1.6381,1.6297,1.6172,1.5981,1.585,1.5831,1.5609,1.5522,1.5374,1.5235,1.512,1.4877,1.4743,1.4643,1.4635,1.4532,1.4593,1.4652,1.4581,1.4585,1.4588,1.4581,1.4581,1.4588,1.4588,1.4589,0,1.66,1.6425,1.6264,1.6154,1.6056,1.5894,1.5803,1.5687,1.5455,1.5388,1.5354,1.5046,1.4902,1.4735,1.4734,1.466,1.4625,1.4617,1.4599,1.46,1.46,1.4591,1.4589,1.4597,1.4596,1.4595,1.4594,0,1.6544,1.6425,1.6378,1.6167,1.6064,1.5964,1.5781,1.5695,1.5595,1.5466,1.5314,1.5138,1.4954,1.4906,1.4804,1.4723,1.4706,1.4639,1.4575,1.4617,1.4604,1.46,1.4609,1.4606,1.4603,1.4601,0,0,1.6689,1.6393,1.6378,1.6279,1.6057,1.5957,1.5848,1.5674,1.5602,1.5448,1.5347,1.5146,1.5082,1.4969,1.485,1.4789,1.4789,1.4726,1.4718,1.4741,1.4683,1.4734,1.4733,1.4721,1.472,1.4719,1.4698,0,1.6695,1.6499,1.635,1.6207,1.6091,1.5936,1.5839,1.5689,1.5567,1.5445,1.5305,1.5166,1.5094,1.5024,1.4957,1.4804,1.4774,1.4803,1.4617,1.4613,1.4669,1.4727,1.478,1.4769,1.4693,1.4692,1.4691,0,1.6675,1.6534,1.6382,1.6172,1.6117,1.6035,1.5862,1.5751,1.5575,1.5489,1.5365,1.5243,1.5113,1.5066,1.4881,1.4905,1.482,1.4733,1.4728,1.4701,1.4653,1.4698,1.4762,1.476,1.4683,1.4684,1.4684,0,1.6792,1.6563,1.6441,1.6362,1.6115,1.6059,1.5952,1.5777,1.5681,1.5528,1.5463,1.5296,1.5202,1.5072,1.4906,1.4887,1.4736,1.4675,1.4655,1.466,1.4627,1.4631,1.4676,1.458,1.458,1.458,1.458,0,1.6812,1.6724,1.6491,1.6416,1.6311,1.6139,1.6037,1.5915,1.5761,1.5654,1.5508,1.5409,1.5198,1.5071,1.494,1.4805,1.4764,1.4686,1.4651,1.4697,1.4707,1.4635,1.463,1.4579,1.4579,1.458,1.458,0,1.6923,1.6765,1.6622,1.6401,1.6344,1.6275,1.6082,1.6,1.5871,1.5738,1.5696,1.549,1.5334,1.5157,1.494,1.4851,1.4723,1.4675,1.4785,1.4765,1.4753,1.4756,1.4751,1.4739,1.4657,1.4658,1.4659,0,1.6945,1.6874,1.6649,1.6571,1.647,1.6345,1.6249,1.6075,1.5979,1.5775,1.5716,1.5551,1.5409,1.5166,1.4991,1.4824,1.4768,1.4778,1.4741,1.4789,1.4763,1.4768,1.4758,1.4787,1.4789,1.479,1.4792,0,1.6999,1.6925,1.6796,1.6639,1.653,1.6396,1.6255,1.6197,1.5994,1.5893,1.5736,1.5627,1.5409,1.5244,1.5056,1.4937,1.4828,1.4806,1.4791,1.4835,1.4901,1.4861,1.481,1.4805,1.4804,1.4803,1.4802,1.4802,1.7062,1.6992,1.6823,1.6683,1.6561,1.6433,1.6345,1.6207,1.6076,1.589,1.5794,1.5637,1.5458,1.5196,1.508,1.495,1.4914,1.4894,1.4888,1.4885,1.4897,1.4927,1.4915,1.4914,1.4914,1.4913,1.4913,0,1.7106,1.6991,1.6864,1.6676,1.6564,1.6481,1.6321,1.623,1.6097,1.5944,1.581,1.5627,1.5467,1.5283,1.5109,1.504,1.4985,1.4999,1.5,1.4973,1.494,1.4969,1.5046,1.5046,1.5046,1.5046,1.5046,1.5046,1.7115,1.6991,1.6897,1.6708,1.659,1.6442,1.6357,1.6236,1.6113,1.5919,1.5788,1.5672,1.5503,1.5317,1.5164,1.5113,1.5053,1.5082,1.5016,1.4987,1.4976,1.4965,1.4991,1.5072,1.5072,1.5059,1.5059,1.5059]}]]